Location: Grossmotten
(48.5500°N, 15.3833°E)
Time: 13:05:49
(UTC+00:00)

Cosmos 1766 Rocket - Pass Details

Date: 15 November 2019
Orbit: 606 x 632 km, 82.5° (Epoch: 05 December)

Event Time Altitude Azimuth Distance (km) Brightness Sun altitude
Rises 04:28:19 0° 190° (S) 2,850 7.0 -16.1°
Reaches altitude 10° 04:30:31 10° 191° (S) 1,952 6.1 -15.7°
Maximum altitude 04:34:50 84° 279° (W) 618 3.4 -15.0°
Drops below altitude 10° 04:39:13 10° 8° (N) 1,974 6.1 -14.3°
Sets 04:41:27 0° 10° (N) 2,887 7.0 -13.9°
